DO273E Weather Reports


time (UTC)temp
C
wind
direction
speed
KPH
gust
KPH
rain 1hr
cm
rain 24hr
cm
rain mn
cm
humidity
%
barometer
mb
20260504050523 6 270 0.0 0.0 0.00 0.00 0.00 66 1015.0
20260504050441 6 270 0.0 0.0 0.00 0.00 0.00 65 1014.9
20260504045522 6 270 0.0 0.0 0.00 0.00 0.00 66 1015.1
20260504045423 6 270 0.0 0.0 0.00 0.00 0.00 66 1015.1
20260504044440 6 270 0.0 0.0 0.00 0.00 0.00 64 1015.0
20260504044324 6 270 0.0 0.0 0.00 0.00 0.00 65 1015.1
20260504043323 6 270 0.0 0.0 0.00 0.00 0.00 63 1014.9
20260504042325 7 270 0.0 1.6 0.00 0.00 0.00 64 1014.9
20260504041325 7 270 1.6 1.6 0.00 0.00 0.00 63 1014.9
20260504040323 7 270 0.0 0.0 0.00 0.00 0.00 62 1014.9
20260504035329 7 270 0.0 0.0 0.00 0.00 0.00 62 1014.9
20260504034344 7 270 0.0 0.0 0.00 0.00 0.00 60 1014.9
20260504033427 7 270 0.0 0.0 0.00 0.00 0.00 59 1015.0
20260504033329 7 270 0.0 1.6 0.00 0.00 0.00 59 1015.0
20260504032327 8 270 0.0 1.6 0.00 0.00 0.00 59 1015.1
20260504030328 8 270 0.0 0.0 0.00 0.00 0.00 56 1015.0
20260504025328 8 270 0.0 0.0 0.00 0.00 0.00 56 1015.1
20260504025230 8 270 0.0 0.0 0.00 0.00 0.00 56 1015.1
20260504024327 8 270 0.0 0.0 0.00 0.00 0.00 56 1015.2
20260504022328 9 270 0.0 0.0 0.00 0.00 0.00 52 1015.4
20260504022244 9 270 0.0 0.0 0.00 0.00 0.00 51 1015.4
20260504021227 9 270 0.0 0.0 0.00 0.00 0.00 51 1015.4
20260504020227 9 270 0.0 0.0 0.00 0.00 0.00 50 1015.4
20260504015229 10 270 0.0 0.0 0.00 0.00 0.00 49 1015.3
20260504014227 10 270 0.0 0.0 0.00 0.00 0.00 49 1015.4
20260504013229 10 270 0.0 1.6 0.00 0.00 0.00 47 1015.3
20260504012327 10 270 0.0 0.0 0.00 0.00 0.00 45 1015.2
20260504011342 10 270 0.0 0.0 0.00 0.00 0.00 45 1015.2
20260504011244 10 270 0.0 0.0 0.00 0.00 0.00 44 1015.2
20260504011127 11 270 0.0 0.0 0.00 0.00 0.00 45 1015.2
20260504010128 11 270 0.0 0.0 0.00 0.00 0.00 43 1015.2
20260504010028 11 270 0.0 0.0 0.00 0.00 0.00 43 1015.2
20260504005127 11 270 0.0 0.0 0.00 0.00 0.00 43 1015.3
20260504004128 11 270 0.0 1.6 0.00 0.00 0.00 42 1015.3
20260504003226 11 270 0.0 3.2 0.00 0.00 0.00 41 1015.2
20260504001343 12 270 6.4 8.0 0.00 0.00 0.00 40 1015.2
20260504001229 12 270 3.2 6.4 0.00 0.00 0.00 41 1015.1
20260504000227 12 270 4.8 6.4 0.00 0.00 0.00 41 1015.1
20260503235227 12 270 6.4 8.0 0.00 0.00 0.00 39 1015.2
20260503235143 12 270 4.8 9.7 0.00 0.00 0.00 40 1015.3
20260503234129 12 247 4.8 9.7 0.00 0.00 0.00 39 1015.3
20260503234045 12 247 1.6 6.4 0.00 0.00 0.00 38 1015.2
20260503233044 13 247 4.8 6.4 0.00 0.00 0.00 39 1015.5
20260503232027 13 270 1.6 8.0 0.00 0.00 0.00 37 1015.5
20260503230128 13 270 6.4 9.7 0.00 0.00 0.00 36 1015.6
20260503224227 13 252 9.7 16.1 0.00 0.00 0.00 36 1015.6
20260503223228 14 270 6.4 11.3 0.00 0.00 0.00 36 1015.7
20260503220329 13 253 8.0 16.1 0.00 0.00 0.00 37 1015.7
20260503215427 13 244 9.7 19.3 0.00 0.00 0.00 36 1015.7
20260503215328 13 249 8.0 19.3 0.00 0.00 0.00 35 1015.8
20260503214345 13 258 8.0 12.9 0.00 0.00 0.00 36 1015.7
20260503213443 13 270 9.7 14.5 0.00 0.00 0.00 35 1015.5
20260503212429 13 221 6.4 9.7 0.00 0.00 0.00 35 1015.6
20260503211527 13 269 14.5 20.9 0.00 0.00 0.00 36 1015.5
20260503210544 13 270 19.3 25.7 0.00 0.00 0.00 35 1015.4
20260503204544 13 271 14.5 24.1 0.00 0.00 0.00 34 1015.8
20260503202528 13 263 14.5 22.5 0.00 0.00 0.00 37 1016.0
20260503201526 13 282 16.1 25.7 0.00 0.00 0.00 36 1016.0
20260503195628 13 266 24.1 41.8 0.00 0.00 0.00 36 1016.3
20260503194627 13 267 14.5 24.1 0.00 0.00 0.00 36 1016.6
20260503193627 13 264 8.0 14.5 0.00 0.00 0.00 38 1016.5
20260503193528 13 277 19.3 27.4 0.00 0.00 0.00 37 1016.5
20260503192627 13 271 20.9 27.4 0.00 0.00 0.00 37 1016.6
20260503192527 13 287 27.4 33.8 0.00 0.00 0.00 36 1016.5
20260503192428 13 286 20.9 29.0 0.00 0.00 0.00 36 1016.6
20260503191526 13 270 17.7 24.1 0.00 0.00 0.00 37 1016.8
20260503190527 13 270 12.9 19.3 0.00 0.00 0.00 39 1017.1
20260503185528 12 272 16.1 29.0 0.00 0.00 0.00 39 1017.1
20260503185429 12 279 17.7 29.0 0.00 0.00 0.00 40 1017.1
20260503184429 12 266 8.0 12.9 0.00 0.00 0.00 39 1017.4
20260503183443 12 298 11.3 19.3 0.00 0.00 0.00 39 1017.3
20260503181528 12 251 11.3 19.3 0.00 0.00 0.00 38 1017.4
20260503180626 12 262 6.4 11.3 0.00 0.00 0.00 38 1017.6
20260503175628 11 271 19.3 32.2 0.00 0.00 0.00 38 1017.7
20260503173643 11 293 20.9 29.0 0.00 0.00 0.00 38 1017.8
20260503171729 11 269 11.3 16.1 0.00 0.00 0.00 39 1018.1
20260503170827 11 270 20.9 25.7 0.00 0.00 0.00 39 1017.9
20260503150628 8 268 17.7 27.4 0.00 0.00 0.00 44 1018.8
20260503131328 5 270 8.0 11.3 0.00 0.00 0.00 62 1019.3
20260503130327 5 270 11.3 12.9 0.00 0.00 0.00 63 1019.2
20260503110427 1 270 0.0 0.0 0.00 0.00 0.00 88 1017.8
20260503110328 1 270 0.0 0.0 0.00 0.00 0.00 89 1017.8
20260503090326 1 270 3.2 4.8 0.00 0.00 0.00 83 1016.8
20260503081430 2 270 4.8 6.4 0.00 0.00 0.00 78 1016.9
20260503080444 2 270 6.4 9.7 0.00 0.00 0.00 77 1016.8
20260503072626 1 315 3.2 4.8 0.00 0.00 0.00 79 1016.6
20260503071627 1 315 3.2 4.8 0.00 0.00 0.00 81 1016.6
20260503054828 2 315 3.2 3.2 0.00 0.00 0.00 75 1016.6
20260503054745 2 315 3.2 4.8 0.00 0.00 0.00 76 1016.6
20260503053743 2 315 3.2 3.2 0.00 0.00 0.00 75 1016.7
20260503053643 2 315 3.2 3.2 0.00 0.00 0.00 75 1016.7